Location: Clinton NY
(43.0598°N, 75.3602°W)
Time: 05:31:31
(UTC-04:00)

ISS - All Passes

Search period start: 17 October 2017 00:00
Search period end: 27 October 2017 00:00
Orbit: 401 x 408 km, 51.6° (Epoch: 18 October)

Date Brightness Start Highest point End Pass type
(mag) Time Alt. Az. Time Alt. Az. Time Alt. Az.
17 Oct - 11:59:52 10° SW 12:03:05 69° SE 12:06:20 10° ENE daylight
17 Oct - 13:37:00 10° WNW 13:39:48 26° NNW 13:42:37 10° NE daylight
17 Oct - 15:14:43 10° NW 15:17:04 18° N 15:19:25 10° NE daylight
17 Oct - 16:51:11 10° NW 16:54:14 34° NNE 16:57:16 10° E daylight
17 Oct - 18:27:39 10° WNW 18:30:44 38° SW 18:33:48 10° SSE daylight
18 Oct - 11:07:52 10° SSW 11:10:53 36° SE 11:13:54 10° ENE daylight
18 Oct - 12:44:20 10° W 12:47:22 35° NNW 12:50:25 10° NE daylight
18 Oct - 14:22:09 10° NW 14:24:31 18° N 14:26:52 10° NE daylight
18 Oct - 15:58:59 10° NW 16:01:46 25° NNE 16:04:33 10° ENE daylight
18 Oct - 17:35:14 10° WNW 17:38:31 73° SW 17:41:47 10° SE daylight
19 Oct - 10:16:19 10° S 10:18:44 20° SE 10:21:11 10° E daylight
19 Oct - 11:51:46 10° WSW 11:54:58 55° NNW 11:58:11 10° NE daylight
19 Oct - 13:29:28 10° WNW 13:31:57 20° N 13:34:27 10° NE daylight
19 Oct - 15:06:42 10° NW 15:09:16 20° N 15:11:49 10° ENE daylight
19 Oct - 16:42:57 10° NW 16:46:12 63° NNE 16:49:27 10° ESE daylight
19 Oct - 18:20:09 10° W 18:22:22 17° SW 18:24:35 10° S daylight
20 Oct - 09:25:58 10° SE 09:26:39 11° SE 09:27:22 10° ESE daylight
20 Oct - 10:59:23 10° SW 11:02:38 85° SE 11:05:54 10° ENE daylight
20 Oct - 12:36:43 10° WNW 12:39:25 24° NNW 12:42:09 10° NE daylight
20 Oct - 14:14:19 10° NW 14:16:42 18° N 14:19:05 10° NE daylight
20 Oct - 15:50:42 10° NW 15:53:48 39° NNE 15:56:54 10° E daylight
20 Oct - 17:27:17 10° WNW 17:30:14 31° SW 17:33:10 10° SSE daylight
21 Oct - 10:07:15 10° SW 10:10:21 44° SE 10:13:29 10° ENE daylight
21 Oct - 11:43:58 10° W 11:46:55 31° NNW 11:49:53 10° NE daylight
21 Oct - 13:21:47 10° NW 13:24:07 18° N 13:26:26 10° NE daylight
21 Oct - 14:58:28 10° NW 15:01:20 27° NNE 15:04:13 10° E daylight
21 Oct - 16:34:46 10° WNW 16:38:00 58° SW 16:41:12 10° SE daylight
22 Oct - 09:15:28 10° SSW 09:18:08 24° SE 09:20:51 10° E daylight
22 Oct - 10:51:19 10° WSW 10:54:27 46° NNW 10:57:38 10° NE daylight
22 Oct - 12:29:05 10° NW 12:31:31 19° N 12:33:56 10° NE daylight
22 Oct - 14:06:11 10° NW 14:08:47 22° NNE 14:11:25 10° ENE daylight
22 Oct - 15:42:24 10° NW 15:45:40 76° NNE 15:48:56 10° ESE daylight
22 Oct - 17:20:00 10° W 17:21:45 14° SW 17:23:30 10° SSW daylight
23 Oct - 08:24:22 10° SSE 08:26:00 13° SE 08:27:38 10° E daylight
23 Oct - 09:58:49 10° WSW 10:02:04 79° NNW 10:05:20 10° NE daylight
23 Oct - 11:36:18 10° WNW 11:38:56 22° NNW 11:41:33 10° NE daylight
23 Oct - 13:13:47 10° NW 13:16:13 19° N 13:18:38 10° NE daylight
23 Oct - 14:50:06 10° NW 14:53:16 45° NNE 14:56:26 10° ESE daylight
23 Oct - 16:26:51 10° W 16:29:36 25° SW 16:32:20 10° SSE daylight
24 Oct - 09:06:33 10° SW 09:09:44 56° SE 09:12:56 10° ENE daylight
24 Oct - 10:43:29 10° W 10:46:22 28° NNW 10:49:15 10° NE daylight
24 Oct - 12:21:15 10° NW 12:23:35 18° N 12:25:55 10° NE daylight
24 Oct - 13:57:49 10° NW 14:00:47 30° NNE 14:03:44 10° E daylight
24 Oct - 15:34:12 10° WNW 15:37:21 46° SW 15:40:30 10° SE daylight
25 Oct - 08:14:34 10° SSW 08:17:27 29° SE 08:20:21 10° ENE daylight
25 Oct - 09:50:45 10° W 09:53:51 40° NNW 09:56:57 10° NE daylight
25 Oct - 11:28:34 10° NW 11:30:57 18° N 11:33:19 10° NE daylight
25 Oct - 13:05:31 10° NW 13:08:13 23° NNE 13:10:56 10° ENE daylight
25 Oct - 14:41:45 10° WNW 14:45:01 88° SSW 14:48:17 10° SE daylight
25 Oct - 16:20:01 10° WSW 16:21:00 11° SW 16:22:00 10° SSW daylight
26 Oct - 07:23:08 10° S 07:25:15 16° SE 07:27:22 10° E daylight
26 Oct - 08:58:09 10° WSW 09:01:23 65° NNW 09:04:38 10° NE daylight
26 Oct - 10:35:46 10° WNW 10:38:19 21° NNW 10:40:52 10° NE daylight
26 Oct - 12:13:08 10° NW 12:15:37 20° N 12:18:05 10° ENE daylight
26 Oct - 13:49:23 10° NW 13:52:36 53° NNE 13:55:49 10° ESE daylight
26 Oct - 15:26:20 10° W 15:28:51 20° SW 15:31:20 10° S daylight
